When you browse on this site, cookies collect data to enhance your experience and personalize the content and advertising you see.
Visit our Privacy Policy to learn more. By continuing to use the site, you agree to this use of cookies and data.

Previsão horária em Stepanakert

Hoje, 27 Setembro, Domingo

Tempo Temperatura Precipitação Vento Pressão Humidade
00:00 +18°C° 0 mm 1 m/s 692 mmHg 74%
01:00 +18°C° 0 mm 1 m/s 692 mmHg 76%
02:00 +15°C° 0 mm 0 m/s 692 mmHg 78%
03:00 +15°C° 0 mm 0 m/s 691 mmHg 80%
04:00 +15°C° 0 mm 0 m/s 692 mmHg 81%
05:00 +15°C° 0 mm 0 m/s 692 mmHg 82%
06:00 +14°C° 0 mm 0 m/s 692 mmHg 84%
07:00 +18°C° 0 mm 1 m/s 693 mmHg 77%
08:00 +19°C° 0 mm 1 m/s 693 mmHg 71%
09:00 +20°C° 0 mm 2 m/s 694 mmHg 64%
10:00 +21°C° 0 mm 2 m/s 694 mmHg 61%
11:00 +23°C° 0 mm 2 m/s 694 mmHg 58%
12:00 +24°C° 0 mm 3 m/s 694 mmHg 54%
13:00 +24°C° 0 mm 3 m/s 694 mmHg 53%
14:00 +24°C° 0 mm 2 m/s 694 mmHg 52%
15:00 +24°C° 0 mm 2 m/s 694 mmHg 52%
16:00 +23°C° 0 mm 2 m/s 694 mmHg 54%
17:00 +21°C° 0 mm 2 m/s 694 mmHg 57%
18:00 +20°C° 0 mm 2 m/s 695 mmHg 60%
19:00 +18°C° 0 mm 2 m/s 695 mmHg 63%
20:00 +18°C° 0 mm 1 m/s 695 mmHg 65%
21:00 +16°C° 0 mm 1 m/s 695 mmHg 68%
22:00 +16°C° 0 mm 1 m/s 696 mmHg 70%
23:00 +15°C° 0 mm 1 m/s 696 mmHg 72%

Amanhã, 28 Setembro, Segunda-feira

Tempo Temperatura Precipitação Vento Pressão Humidade
00:00 +15°C° 0 mm 1 m/s 696 mmHg 75%
01:00 +15°C° 0 mm 1 m/s 696 mmHg 76%
02:00 +13°C° 0 mm 0 m/s 696 mmHg 78%
03:00 +13°C° 0 mm 0 m/s 696 mmHg 79%
04:00 +13°C° 0 mm 0 m/s 697 mmHg 80%
05:00 +13°C° 0 mm 0 m/s 697 mmHg 80%
06:00 +12°C° 0 mm 0 m/s 698 mmHg 81%
07:00 +15°C° 0 mm 1 m/s 698 mmHg 75%
08:00 +16°C° 0 mm 1 m/s 698 mmHg 68%
09:00 +18°C° 0 mm 2 m/s 699 mmHg 62%
10:00 +18°C° 0 mm 2 m/s 699 mmHg 59%
11:00 +19°C° 0 mm 2 m/s 699 mmHg 56%
12:00 +20°C° 0 mm 3 m/s 698 mmHg 52%
13:00 +20°C° 0 mm 2 m/s 698 mmHg 51%
14:00 +20°C° 0 mm 2 m/s 698 mmHg 49%
15:00 +21°C° 0 mm 2 m/s 698 mmHg 47%
16:00 +20°C° 0 mm 2 m/s 698 mmHg 49%
17:00 +20°C° 0 mm 1 m/s 698 mmHg 50%
18:00 +18°C° 0 mm 1 m/s 698 mmHg 52%
19:00 +16°C° 0 mm 1 m/s 698 mmHg 55%
20:00 +16°C° 0 mm 1 m/s 698 mmHg 58%
21:00 +15°C° 0 mm 1 m/s 698 mmHg 61%
22:00 +14°C° 0 mm 1 m/s 698 mmHg 62%
23:00 +14°C° 0 mm 1 m/s 698 mmHg 63%

Depois de amanhã, 29 Setembro, Terça-feira

Tempo Temperatura Precipitação Vento Pressão Humidade
00:00 +13°C° 0 mm 0 m/s 698 mmHg 65%
01:00 +12°C° 0 mm 0 m/s 698 mmHg 66%
02:00 +12°C° 0 mm 0 m/s 697 mmHg 68%
03:00 +12°C° 0 mm 0 m/s 697 mmHg 69%
04:00 +11°C° 0 mm 0 m/s 697 mmHg 71%
05:00 +11°C° 0 mm 0 m/s 697 mmHg 72%
06:00 +11°C° 0 mm 0 m/s 697 mmHg 73%
07:00 +14°C° 0 mm 1 m/s 698 mmHg 66%
08:00 +15°C° 0 mm 1 m/s 698 mmHg 60%
09:00 +17°C° 0 mm 2 m/s 698 mmHg 53%
10:00 +18°C° 0 mm 2 m/s 698 mmHg 50%
11:00 +19°C° 0 mm 2 m/s 698 mmHg 47%
12:00 +20°C° 0 mm 3 m/s 697 mmHg 44%
13:00 +20°C° 0 mm 3 m/s 697 mmHg 43%
14:00 +20°C° 0 mm 2 m/s 696 mmHg 43%
15:00 +20°C° 0 mm 2 m/s 696 mmHg 42%
16:00 +19°C° 0 mm 2 m/s 696 mmHg 46%
17:00 +19°C° 0 mm 1 m/s 695 mmHg 49%
18:00 +16°C° 0 mm 1 m/s 695 mmHg 53%
19:00 +16°C° 0 mm 1 m/s 695 mmHg 54%
20:00 +15°C° 0 mm 1 m/s 695 mmHg 56%
21:00 +15°C° 0 mm 1 m/s 695 mmHg 58%
22:00 +14°C° 0 mm 1 m/s 695 mmHg 59%
23:00 +14°C° 0 mm 1 m/s 694 mmHg 60%

30 Setembro, Quarta-feira

Tempo Temperatura Precipitação Vento Pressão Humidade
00:00 +14°C° 0 mm 1 m/s 694 mmHg 61%
01:00 +13°C° 0 mm 1 m/s 694 mmHg 64%
02:00 +13°C° 0 mm 1 m/s 693 mmHg 66%
03:00 +12°C° 0 mm 1 m/s 693 mmHg 68%
04:00 +12°C° 0 mm 1 m/s 693 mmHg 68%
05:00 +12°C° 0 mm 1 m/s 693 mmHg 69%
06:00 +12°C° 0 mm 1 m/s 693 mmHg 70%
07:00 +13°C° 0 mm 1 m/s 693 mmHg 65%
08:00 +15°C° 0 mm 1 m/s 693 mmHg 60%
09:00 +18°C° 0 mm 1 m/s 693 mmHg 55%
10:00 +17°C° 0 mm 2 m/s 693 mmHg 53%
11:00 +18°C° 0 mm 2 m/s 693 mmHg 51%
12:00 +19°C° 0 mm 3 m/s 692 mmHg 50%
13:00 +19°C° 0 mm 2 m/s 692 mmHg 50%
14:00 +19°C° 0 mm 2 m/s 692 mmHg 50%
15:00 +20°C° 0 mm 2 m/s 691 mmHg 51%
16:00 +18°C° 0 mm 2 m/s 691 mmHg 55%
17:00 +18°C° 0 mm 1 m/s 691 mmHg 60%
18:00 +15°C° 0 mm 0 m/s 691 mmHg 64%
19:00 +15°C° 0 mm 1 m/s 691 mmHg 67%
20:00 +15°C° 0 mm 1 m/s 691 mmHg 70%
21:00 +14°C° 0 mm 1 m/s 692 mmHg 73%
22:00 +14°C° 0 mm 1 m/s 691 mmHg 74%
23:00 +13°C° 0 mm 0 m/s 691 mmHg 75%

1 Outubro, Quinta-feira

Tempo Temperatura Precipitação Vento Pressão Humidade
00:00 +12°C° 0 mm 0 m/s 691 mmHg 76%
01:00 +12°C° 0 mm 0 m/s 691 mmHg 77%
02:00 +12°C° 0 mm 0 m/s 691 mmHg 78%
03:00 +12°C° 0 mm 0 m/s 690 mmHg 78%
04:00 +11°C° 0 mm 0 m/s 691 mmHg 80%
05:00 +11°C° 0 mm 0 m/s 691 mmHg 81%
06:00 +11°C° 0 mm 0 m/s 691 mmHg 83%
07:00 +14°C° 0 mm 1 m/s 691 mmHg 75%
08:00 +15°C° 0 mm 1 m/s 692 mmHg 68%
09:00 +17°C° 0 mm 2 m/s 692 mmHg 60%
10:00 +18°C° 0 mm 2 m/s 692 mmHg 58%
11:00 +19°C° 0 mm 2 m/s 692 mmHg 56%
12:00 +20°C° 0 mm 3 m/s 691 mmHg 54%
13:00 +20°C° 0 mm 3 m/s 691 mmHg 53%
14:00 +21°C° 0 mm 2 m/s 691 mmHg 53%
15:00 +21°C° 0 mm 2 m/s 690 mmHg 53%
16:00 +19°C° 0 mm 2 m/s 690 mmHg 58%
17:00 +19°C° 0 mm 1 m/s 690 mmHg 63%
18:00 +16°C° 0 mm 0 m/s 690 mmHg 68%
19:00 +15°C° 0 mm 0 m/s 690 mmHg 69%
20:00 +16°C° 0 mm 1 m/s 690 mmHg 70%
21:00 +16°C° 0 mm 1 m/s 690 mmHg 71%
22:00 +16°C° 0 mm 1 m/s 690 mmHg 71%
23:00 +15°C° 0 mm 1 m/s 690 mmHg 71%

2 Outubro, Sexta-feira

Tempo Temperatura Precipitação Vento Pressão Humidade
00:00 +14°C° 0 mm 0 m/s 690 mmHg 70%
01:00 +15°C° 0 mm 1 m/s 690 mmHg 70%
02:00 +15°C° 0 mm 1 m/s 690 mmHg 70%
03:00 +15°C° 0 mm 1 m/s 690 mmHg 70%
04:00 +15°C° 0 mm 1 m/s 690 mmHg 69%
05:00 +15°C° 0 mm 1 m/s 690 mmHg 68%
06:00 +15°C° 0 mm 1 m/s 690 mmHg 68%
07:00 +18°C° 0 mm 1 m/s 691 mmHg 60%
08:00 +21°C° 0 mm 1 m/s 691 mmHg 53%
09:00 +23°C° 0 mm 1 m/s 692 mmHg 46%
10:00 +24°C° 0 mm 2 m/s 692 mmHg 43%
11:00 +25°C° 0 mm 2 m/s 691 mmHg 41%
12:00 +27°C° 0 mm 2 m/s 691 mmHg 38%
13:00 +27°C° 0 mm 2 m/s 691 mmHg 38%
14:00 +27°C° 0 mm 2 m/s 691 mmHg 39%
15:00 +27°C° 0 mm 2 m/s 690 mmHg 39%
16:00 +25°C° 0.1 mm 2 m/s 691 mmHg 46%
17:00 +24°C° 0.1 mm 2 m/s 691 mmHg 53%
18:00 +22°C° 0.1 mm 1 m/s 691 mmHg 60%
19:00 +21°C° 0.4 mm 1 m/s 692 mmHg 62%
20:00 +21°C° 0.4 mm 1 m/s 692 mmHg 64%
21:00 +20°C° 0.4 mm 1 m/s 692 mmHg 67%
22:00 +20°C° 0.1 mm 1 m/s 692 mmHg 66%
23:00 +19°C° 0.1 mm 2 m/s 692 mmHg 65%
Mostrar mais